GSAT0211 (GALILEO 14) (41549 NORAD) Tracking and Keplerian Element Data

This shows tracking and keplerian element data for the satellite.

Feedback or suggestion? Click here.




ElementValue
Catalog41549
NameGSAT0211 (GALILEO 14)
Epoch Orbit1336
Epoch Day197.93542259
Epoch Year2018
RAAN301.1397
Inclination56.8523
Eccentricity0.0002207
Argument of Perigee250.9801
Mean Anonmoly109.0326
Mean Motion1.70475034
Decay Rate-5.7E-07
L11 41549U 16030A 18197.93542259 -.00000057 00000-0 00000-0 0 9991
L22 41549 56.8523 301.1397 0002207 250.9801 109.0326 1.70475034 13369

Live tracking and technical data element details for GSAT0211 (GALILEO 14) (NORAD 41549). GSAT0211 (GALILEO 14) can be tracked NOW for your location showing map with azimuth and elevation plus other details from your city location.

Track the satellite on the map from your city or location and see movement details for azimuth, elevation, latitude, longitude, range, height, and movement on the map or in text.







IsCatalogInMostPopularTable: catalog: 41549, numindb: 52
Update: records affected: 1



GetName: 41549 GSAT0211 (GALILEO 14)

Hit Count: updated at: Fri, 20 Jul 2018 20:30:35 GMT